Weather History for Kenansville, NC

Change the Weather History Date:

Tuesday, March 25, 2014

  Actual Average (KGSB) Record (KGSB)
Temperature  
Mean Temperature 40 °F -  
Max Temperature 46 °F 66 °F 82 °F (2002)
Min Temperature 35 °F 45 °F 35 °F (2008)
Degree Days  
Heating Degree Days 24    
Moisture  
Dew Point 35 °F    
Average Humidity 81    
Maximum Humidity 95    
Minimum Humidity 67    
Precipitation  
Precipitation 0.13 in - - ()
Sea Level Pressure  
Sea Level Pressure 29.90 in    
Wind  
Wind Speed 3 mph (NNW)    
Max Wind Speed 15 mph    
Max Gust Speed 25 mph    
Visibility 9 miles    
Events Rain    
Averages and records for this station are not official NWS values.
T = Trace of Precipitation, MM = Missing Value Source: NWS Daily Summary

Daily Weather History Graph

Daily Weather History Graph

Search for Another Location

Airport:

Trip Planner

Search our weather history database for the weather conditions in past years. The results will help you decide how hot, cold, wet, or windy it might be!

Date:

Astronomy

Mar. 25, 2014 Rise Set
Actual Time 7:08 AM EDT 7:27 PM EDT
Civil Twilight 6:43 AM EDT 7:52 PM EDT
Nautical Twilight 6:13 AM EDT 8:22 PM EDT
Astronomical Twilight 5:43 AM EDT 8:52 PM EDT
Moon 3:17 AM EDT (3/25) 2:07 PM EDT (3/25)
Length of Visible Light 13h 09m
Length of Day
12h 19m
Waning Crescent, 32% of the Moon is Illuminated
Mar 25
Waning Crescent
Mar 30
New
Apr 7
First Quarter
Apr 15
Full
Apr 22
Last Quarter

Hourly Weather History & Observations

Time (EDT) Temp. Windchill Dew Point Humidity Pressure Visibility Wind Dir Wind Speed Gust Speed Precip Events Conditions
12:15 AM 36.5 °F - 30.4 °F 78% 30.14 in 10.0 mi Calm Calm - N/A   Clear
12:35 AM 36.9 °F - 30.4 °F 77% 30.14 in 10.0 mi Calm Calm - N/A   Clear
12:55 AM 36.7 °F - 30.7 °F 79% 30.13 in 10.0 mi Calm Calm - N/A   Clear
1:15 AM 36.7 °F 34.1 °F 30.2 °F 77% 30.12 in 10.0 mi ESE 3.5 mph - N/A   Clear
1:35 AM 36.5 °F - 30.2 °F 78% 30.11 in 10.0 mi Calm Calm - N/A   Clear
1:55 AM 36.1 °F - 30.6 °F 80% 30.11 in 10.0 mi Calm Calm - N/A   Clear
2:15 AM 36.5 °F 31.8 °F 30.4 °F 78% 30.09 in 10.0 mi East 5.8 mph - N/A   Clear
2:35 AM 36.9 °F - 30.6 °F 78% 30.08 in 10.0 mi Calm Calm - N/A   Scattered Clouds
2:55 AM 36.5 °F - 30.4 °F 78% 30.08 in 10.0 mi Calm Calm - N/A   Scattered Clouds
3:15 AM 35.8 °F - 30.2 °F 80% 30.06 in 10.0 mi Calm Calm - N/A   Clear
3:35 AM 35.6 °F - 30.7 °F 82% 30.05 in 10.0 mi Calm Calm - N/A   Scattered Clouds
3:55 AM 36.3 °F - 30.7 °F 80% 30.04 in 10.0 mi Calm Calm - N/A   Scattered Clouds
4:15 AM 36.0 °F - 31.1 °F 82% 30.03 in 10.0 mi Calm Calm - N/A   Scattered Clouds
4:35 AM 36.7 °F 32.9 °F 30.7 °F 79% 30.04 in 10.0 mi ESE 4.6 mph - N/A   Scattered Clouds
4:55 AM 36.7 °F 34.1 °F 30.7 °F 79% 30.03 in 10.0 mi ESE 3.5 mph - N/A   Scattered Clouds
5:15 AM 37.2 °F - 30.4 °F 76% 30.03 in 10.0 mi Calm Calm - N/A   Scattered Clouds
5:35 AM 37.4 °F - 30.6 °F 76% 30.01 in 10.0 mi Calm Calm - N/A   Mostly Cloudy
5:55 AM 38.3 °F 35.9 °F 29.5 °F 71% 29.98 in 10.0 mi East 3.5 mph - N/A   Overcast
6:15 AM 39.2 °F - 29.3 °F 68% 30.01 in 10.0 mi Calm Calm - N/A   Overcast
6:35 AM 38.7 °F - 29.5 °F 70% 29.98 in 10.0 mi Calm Calm - N/A   Overcast
6:55 AM 39.2 °F - 29.8 °F 69% 29.97 in 10.0 mi Calm Calm - N/A   Overcast
7:15 AM 39.4 °F 37.2 °F 30.0 °F 69% 29.96 in 10.0 mi ENE 3.5 mph - N/A   Overcast
7:35 AM 40.1 °F - 30.0 °F 67% 29.97 in 10.0 mi Calm Calm - N/A   Overcast
7:55 AM 40.1 °F - 30.9 °F 70% 29.98 in 10.0 mi Calm Calm - N/A   Overcast
8:15 AM 40.1 °F - 31.1 °F 70% 29.98 in 10.0 mi Calm Calm - N/A   Overcast
8:35 AM 40.6 °F - 31.3 °F 69% 29.98 in 10.0 mi Calm Calm - N/A   Overcast
8:55 AM 40.6 °F - 32.5 °F 73% 29.96 in 10.0 mi Calm Calm - N/A Rain Light Rain
9:15 AM 41.0 °F 38.0 °F 32.7 °F 72% 29.95 in 10.0 mi East 4.6 mph - N/A   Mostly Cloudy
9:35 AM 41.7 °F 37.3 °F 32.2 °F 69% 29.94 in 10.0 mi ESE 6.9 mph - N/A   Mostly Cloudy
9:55 AM 42.3 °F 37.3 °F 32.5 °F 68% 29.93 in 10.0 mi ESE 8.1 mph - N/A   Mostly Cloudy
10:15 AM 42.1 °F 37.1 °F 34.2 °F 74% 29.90 in 10.0 mi ESE 8.1 mph - N/A   Mostly Cloudy
10:35 AM 42.1 °F 37.7 °F 36.3 °F 80% 29.90 in 10.0 mi East 6.9 mph 16.1 mph N/A   Mostly Cloudy
10:55 AM 42.8 °F 39.3 °F 37.4 °F 81% 29.90 in 10.0 mi East 5.8 mph - N/A   Overcast
11:15 AM 43.9 °F 41.3 °F 38.7 °F 82% 29.89 in 10.0 mi ESE 4.6 mph - N/A   Mostly Cloudy
11:35 AM 44.2 °F 42.7 °F 39.2 °F 82% 29.89 in 10.0 mi ESE 3.5 mph - N/A   Mostly Cloudy
11:55 AM 44.8 °F - 40.1 °F 84% 29.87 in 10.0 mi Calm Calm - N/A   Overcast
12:15 PM 45.1 °F - 40.3 °F 83% 29.85 in 10.0 mi Calm Calm - N/A   Overcast
12:35 PM 46.0 °F - 40.8 °F 82% 29.83 in 10.0 mi Calm Calm - N/A   Overcast
12:55 PM 46.4 °F - 41.0 °F 81% 29.82 in 10.0 mi Calm Calm - N/A   Overcast
1:15 PM 45.7 °F 44.4 °F 41.4 °F 85% 29.81 in 7.0 mi NW 3.5 mph - N/A Rain Rain
1:35 PM 44.6 °F 40.2 °F 42.4 °F 92% 29.81 in 3.0 mi WNW 8.1 mph - 0.02 in Rain Light Rain
1:55 PM 43.7 °F 41.1 °F 42.1 °F 94% 29.80 in 3.0 mi NW 4.6 mph - 0.05 in Rain Rain
2:15 PM 43.7 °F 39.7 °F 41.9 °F 93% 29.77 in 4.0 mi NNW 6.9 mph - 0.02 in Rain Light Rain
2:35 PM 44.1 °F 41.5 °F 42.3 °F 93% 29.76 in 10.0 mi NNW 4.6 mph - 0.03 in Rain Light Rain
2:55 PM 44.1 °F 40.1 °F 42.4 °F 94% 29.74 in 10.0 mi North 6.9 mph - 0.03 in   Overcast
3:15 PM 43.9 °F 41.3 °F 42.4 °F 95% 29.74 in 5.0 mi NNW 4.6 mph - N/A Rain Light Rain
3:35 PM 43.2 °F 39.0 °F 41.7 °F 95% 29.75 in 5.0 mi NNW 6.9 mph - 0.03 in Rain Light Rain
3:55 PM 42.8 °F 38.6 °F 41.5 °F 95% 29.73 in 5.0 mi NNW 6.9 mph - 0.05 in Rain Rain
4:15 PM 43.9 °F 39.9 °F 42.3 °F 94% 29.73 in 7.0 mi NW 6.9 mph - N/A Rain Light Rain
4:35 PM 43.7 °F 39.1 °F 41.7 °F 93% 29.73 in 10.0 mi NW 8.1 mph - N/A   Overcast
4:55 PM 42.4 °F 36.5 °F 40.5 °F 93% 29.74 in 10.0 mi NW 10.4 mph - N/A   Overcast
5:15 PM 42.3 °F 36.8 °F 39.6 °F 90% 29.74 in 10.0 mi NNW 9.2 mph - N/A   Overcast
5:35 PM 42.1 °F 37.1 °F 39.2 °F 90% 29.74 in 10.0 mi NW 8.1 mph - N/A   Overcast
5:55 PM 42.1 °F 36.6 °F 38.8 °F 88% 29.75 in 10.0 mi NNW 9.2 mph 16.1 mph N/A   Overcast
6:15 PM 42.1 °F 38.4 °F 39.0 °F 89% 29.75 in 10.0 mi NW 5.8 mph - N/A   Overcast
6:35 PM 42.1 °F 35.7 °F 37.4 °F 83% 29.76 in 10.0 mi NW 11.5 mph - N/A   Mostly Cloudy
6:55 PM 41.9 °F 36.9 °F 37.4 °F 84% 29.77 in 10.0 mi NW 8.1 mph - N/A   Mostly Cloudy
7:15 PM 42.1 °F 36.1 °F 36.9 °F 82% 29.78 in 10.0 mi NW 10.4 mph - N/A   Overcast
7:35 PM 41.9 °F 36.9 °F 37.2 °F 83% 29.78 in 10.0 mi WNW 8.1 mph - N/A   Overcast
7:55 PM 41.9 °F 38.2 °F 37.6 °F 85% 29.79 in 10.0 mi WNW 5.8 mph - N/A   Overcast
8:15 PM 42.1 °F 37.1 °F 37.8 °F 85% 29.79 in 10.0 mi WNW 8.1 mph - N/A   Overcast
8:35 PM 41.9 °F 34.6 °F 36.5 °F 81% 29.81 in 10.0 mi NW 13.8 mph 21.9 mph N/A   Overcast
8:55 PM 41.0 °F 33.5 °F 35.4 °F 81% 29.82 in 10.0 mi NW 13.8 mph 24.2 mph N/A   Mostly Cloudy
9:15 PM 40.6 °F 32.7 °F 33.8 °F 77% 29.84 in 10.0 mi NW 15.0 mph 25.3 mph N/A   Scattered Clouds
9:35 PM 39.9 °F 32.5 °F 33.3 °F 77% 29.85 in 10.0 mi NW 12.7 mph 24.2 mph N/A   Scattered Clouds
9:55 PM 39.2 °F 31.6 °F 33.1 °F 79% 29.87 in 10.0 mi NW 12.7 mph 24.2 mph N/A   Mostly Cloudy
10:15 PM 38.3 °F 31.9 °F 32.2 °F 79% 29.87 in 10.0 mi NW 9.2 mph 20.7 mph N/A   Scattered Clouds
10:35 PM 37.8 °F 31.3 °F 32.9 °F 83% 29.89 in 10.0 mi WNW 9.2 mph - N/A   Scattered Clouds
10:55 PM 37.6 °F 30.5 °F 32.7 °F 83% 29.89 in 10.0 mi WNW 10.4 mph 18.4 mph N/A   Clear
11:15 PM 37.4 °F 32.1 °F 32.4 °F 82% 29.90 in 10.0 mi NW 6.9 mph - N/A   Clear
11:35 PM 37.4 °F 30.3 °F 32.2 °F 81% 29.91 in 10.0 mi NW 10.4 mph 17.3 mph N/A   Scattered Clouds
11:55 PM 37.0 °F 31.0 °F 32.0 °F 82% 29.92 in 10.0 mi NW 8.1 mph - N/A   Scattered Clouds